Location: Wheeling
(40.0640°N, 80.7210°W)
Time: 14:36:54
(UTC-05:00)

CUTE 1.7 + AOD 2 - Pass Details

Date: 03 November 2021
Orbit: 592 x 610 km, 97.6° (Epoch: 01 December)

Event Time Altitude Azimuth Distance (km) Brightness Sun altitude
Rises 05:53:03 0° 7° (N) 2,877 ? -23.7°
Reaches altitude 10° 05:55:16 10° 3° (N) 1,967 ? -23.2°
Enters shadow 05:57:24 28° 351° (N) 1,158 ? -22.8°
